User: anonymous   Login
Location: Unspecified
(0.0000°N, 0.0000°E)
Time: 15:33:08
(UTC+00:00)
Language:

USA 237 - Orbit

View from above orbital plane
View from above orbital plane
View from above satellite
View from above satellite

Ground track
Ground track

The orbit data is extracted from the following two-line orbital elements,

1 38528U 12034A   17165.11828442 0.00000000  00000-0  00000-0 0    09
2 38528   0.9600 357.9176 0042287   1.4993 358.4052  1.00270000    07
Epoch (UTC): 14 June 2017 02:50:19
Eccentricity: 0.0042287
inclination: 0.9600°
perigee height: 35608 km
apogee height: 35965 km
right ascension of ascending node: 357.9176°
argument of perigee: 1.4993°
revolutions per day: 1.00270000
mean anomaly at epoch: 358.4052°
orbit number at epoch: 0

The dashed part of the orbit path shows where the satellite is in the earth's shadow,  

DLR